This demonstration page uses our WeatherBlox Daily Observations layout. Learn more.

Left ArrowRight Arrow

31.84235, -102.49876

Hourly Observations for May 4, 2017

Temp ( °F °C ) Dew Point ( °F °C ) Humidity (%) Winds ( mph kmh ) Pressure ( in mb ) Visibility ( mi km ) Precip ( " mm )
12:53 am 00:53 Clear 58 14.4 42 5.6 56 56 ENE 24 39 30.11 1020 10 16 0.00 0.00
1:53 am 01:53 Clear 57 13.9 38 3.3 49 49 NE 14 22 30.12 1020 10 16 0.00 0.00
2:53 am 02:53 Clear 55 12.8 34 1.1 45 45 NE 12 19 30.11 1020 10 16 0.00 0.00
3:53 am 03:53 Clear 53 11.7 34 1.1 48 48 NNE 10 17 30.12 1020 10 16 0.00 0.00
4:53 am 04:53 Clear 51 10.6 33 0.6 50 50 N 9 15 30.14 1021 10 16 0.00 0.00
5:53 am 05:53 Clear 49 9.4 33 0.6 55 55 N 8 13 30.15 1021 10 16 0.00 0.00
6:53 am 06:53 Clear 48 8.9 33 0.6 56 56 NNW 7 11 30.16 1022 10 16 0.00 0.00
7:53 am 07:53 Sunny 49 9.4 34 1.1 56 56 NNW 10 17 30.19 1023 10 16 0.00 0.00
8:53 am 08:53 Sunny 55 12.8 35 1.7 47 47 N 14 22 30.21 1023 10 16 0.00 0.00
9:53 am 09:53 Sunny 60 15.6 34 1.1 38 38 N 10 17 30.21 1023 10 16 0.00 0.00
10:53 am 10:53 Sunny 63 17.2 31 -0.6 30 30 NNW 8 13 30.21 1023 10 16 0.00 0.00
11:53 am 11:53 Sunny 66 18.9 29 -1.7 25 25 NNE 9 15 30.20 1023 10 16 0.00 0.00
12:53 pm 12:53 Sunny 69 20.6 29 -1.7 22 22 N 13 20 30.18 1022 10 16 0.00 0.00
1:53 pm 13:53 Sunny 71 21.7 27 -2.8 19 19 undefined N/A 30.14 1021 10 16 0.00 0.00
2:53 pm 14:53 Sunny 76 24.4 27 -2.8 16 16 NNE 13 20 30.11 1020 10 16 0.00 0.00
3:53 pm 15:53 Sunny 76 24.4 26 -3.3 16 16 N 8 13 30.09 1019 10 16 0.00 0.00
4:53 pm 16:53 Sunny 77 25 24 -4.4 14 14 N 10 17 30.07 1018 10 16 0.00 0.00
5:53 pm 17:53 Sunny 78 25.6 23 -5 13 13 NNE 10 17 30.05 1018 10 16 0.00 0.00
6:53 pm 18:53 Sunny 77 25 23 -5 13 13 NNE 12 19 30.04 1017 10 16 0.00 0.00
7:53 pm 19:53 Sunny 75 23.9 24 -4.4 15 15 N 10 17 30.04 1017 10 16 0.00 0.00
8:53 pm 20:53 Clear 69 20.6 26 -3.3 20 20 NNE 5 7 30.05 1018 10 16 0.00 0.00
9:53 pm 21:53 Clear 68 20 26 -3.3 21 21 Calm 30.04 1017 10 16 0.00 0.00
10:53 pm 22:53 Clear 68 20 24 -4.4 19 19 ENE 3 6 30.04 1017 10 16 0.00 0.00
11:53 pm 23:53 Clear 60 15.6 27 -2.8 28 28 E 9 15 30.06 1018 10 16 0.00 0.00

Powered by AerisWeather